GW6022 Weather Reports


time (UTC)temp
C
wind
direction
speed
KPH
gust
KPH
rain 1hr
cm
rain 24hr
cm
rain mn
cm
humidity
%
barometer
mb
20260504192227 27 264 1.6 9.7 0.00 0.00 0.00 11 1013.9
20260504192113 27 264 1.6 9.7 0.00 0.00 0.00 12 1014.0
20260504191727 28 264 1.6 9.7 0.00 0.00 0.00 12 1014.0
20260504191448 28 261 1.6 6.4 0.00 0.00 0.00 14 1014.0
20260504191113 28 261 1.6 6.4 0.00 0.00 0.00 14 1014.0
20260504190946 27 261 1.6 6.4 0.00 0.00 0.00 16 1014.1
20260504190226 28 261 1.6 6.4 0.00 0.00 0.00 15 1014.1
20260504190114 28 261 1.6 6.4 0.00 0.00 0.00 15 1014.2
20260504185725 27 261 1.6 6.4 0.00 0.00 0.00 16 1014.2
20260504185226 27 261 1.6 6.4 0.00 0.00 0.00 17 1014.4
20260504185112 27 260 1.6 6.4 0.00 0.00 0.00 17 1014.4
20260504184726 28 262 0.0 6.4 0.00 0.00 0.00 16 1014.5
20260504184225 28 259 0.0 4.8 0.00 0.00 0.00 16 1014.5
20260504184114 28 259 0.0 4.8 0.00 0.00 0.00 16 1014.6
20260504183728 28 259 0.0 4.8 0.00 0.00 0.00 16 1014.6
20260504183225 27 259 0.0 4.8 0.00 0.00 0.00 16 1014.6
20260504183113 27 259 1.6 4.8 0.00 0.00 0.00 16 1014.6
20260504182724 27 259 1.6 3.2 0.00 0.00 0.00 16 1014.7
20260504182448 28 259 0.0 3.2 0.00 0.00 0.00 15 1014.8
20260504182114 28 259 0.0 3.2 0.00 0.00 0.00 15 1014.7
20260504181731 27 261 0.0 3.2 0.00 0.00 0.00 14 1014.8
20260504181231 27 261 0.0 3.2 0.00 0.00 0.00 15 1014.9
20260504180725 27 261 0.0 3.2 0.00 0.00 0.00 16 1015.0
20260504180223 28 261 0.0 1.6 0.00 0.00 0.00 16 1015.0
20260504180113 28 261 0.0 1.6 0.00 0.00 0.00 15 1015.0
20260504175724 28 261 0.0 1.6 0.00 0.00 0.00 17 1015.1
20260504175226 28 261 0.0 1.6 0.00 0.00 0.00 17 1015.2
20260504175111 28 261 0.0 1.6 0.00 0.00 0.00 17 1015.2
20260504174723 27 261 0.0 1.6 0.00 0.00 0.00 17 1015.2
20260504174224 27 261 0.0 1.6 0.00 0.00 0.00 18 1015.3
20260504174111 27 261 0.0 1.6 0.00 0.00 0.00 18 1015.3
20260504173721 27 261 0.0 1.6 0.00 0.00 0.00 18 1015.3
20260504173223 26 261 0.0 3.2 0.00 0.00 0.00 19 1015.3
20260504173110 26 261 0.0 3.2 0.00 0.00 0.00 19 1015.3
20260504172721 27 261 0.0 3.2 0.00 0.00 0.00 19 1015.4
20260504172442 26 261 0.0 3.2 0.00 0.00 0.00 20 1015.4
20260504172110 26 261 0.0 3.2 0.00 0.00 0.00 20 1015.5
20260504171947 26 261 0.0 4.8 0.00 0.00 0.00 20 1015.6
20260504171552 25 261 0.0 4.8 0.00 0.00 0.00 21 1015.6
20260504171228 26 261 0.0 4.8 0.00 0.00 0.00 21 1015.6
20260504170719 25 261 0.0 4.8 0.00 0.00 0.00 21 1015.7
20260504170108 25 261 0.0 4.8 0.00 0.00 0.00 21 1015.7
20260504160200 24 261 0.0 3.2 0.00 0.00 0.00 21 1016.4
20260504160106 24 261 0.0 3.2 0.00 0.00 0.00 21 1016.4
20260504151141 22 261 0.0 3.2 0.00 0.00 0.00 24 1016.6
20260504151105 22 261 0.0 1.6 0.00 0.00 0.00 24 1016.6
20260504150637 21 261 0.0 6.4 0.00 0.00 0.00 25 1016.5
20260504150135 21 261 0.0 6.4 0.00 0.00 0.00 25 1016.6
20260504150104 21 261 0.0 6.4 0.00 0.00 0.00 25 1016.6
20260504141103 19 261 1.6 6.4 0.00 0.00 0.00 28 1016.8
20260504140627 19 260 0.0 6.4 0.00 0.00 0.00 28 1016.9
20260504130628 15 260 0.0 1.6 0.00 0.00 0.00 36 1016.7
20260504130349 15 260 0.0 1.6 0.00 0.00 0.00 38 1016.7
20260504110622 13 260 3.2 6.4 0.00 0.00 0.00 38 1016.2
20260504110548 13 260 1.6 4.8 0.00 0.00 0.00 38 1016.1
20260504110213 13 260 1.6 4.8 0.00 0.00 0.00 38 1016.1
20260504090110 13 260 0.0 3.2 0.00 0.00 0.00 40 1016.2
20260504081552 13 260 0.0 0.0 0.00 0.00 0.00 41 1016.1
20260504081310 13 260 0.0 0.0 0.00 0.00 0.00 41 1016.1
20260504081153 13 260 0.0 0.0 0.00 0.00 0.00 41 1016.1
20260504080546 13 260 0.0 0.0 0.00 0.00 0.00 41 1016.1
20260504050741 15 260 0.0 1.6 0.00 0.00 0.00 34 1016.8
20260504050012 15 260 0.0 1.6 0.00 0.00 0.00 34 1016.8
20260504045511 15 260 0.0 0.0 0.00 0.00 0.00 34 1016.8
20260504045011 15 260 0.0 1.6 0.00 0.00 0.00 34 1016.7
20260504044513 16 260 1.6 4.8 0.00 0.00 0.00 33 1016.8
20260504044033 16 260 1.6 4.8 0.00 0.00 0.00 32 1016.8
20260504044012 16 260 1.6 6.4 0.00 0.00 0.00 32 1016.8
20260504043529 16 260 0.0 6.4 0.00 0.00 0.00 32 1016.9
20260504043513 16 260 0.0 6.4 0.00 0.00 0.00 32 1016.9
20260504043011 16 260 0.0 4.8 0.00 0.00 0.00 32 1016.9
20260504042511 16 260 0.0 6.4 0.00 0.00 0.00 32 1016.8
20260504042012 16 260 0.0 6.4 0.00 0.00 0.00 32 1016.9
20260504041511 16 260 1.6 4.8 0.00 0.00 0.00 32 1016.9
20260504041236 16 260 1.6 3.2 0.00 0.00 0.00 32 1016.9
20260504041122 16 260 1.6 3.2 0.00 0.00 0.00 32 1016.9
20260504040509 16 260 0.0 3.2 0.00 0.00 0.00 32 1016.9
20260504040032 16 260 0.0 4.8 0.00 0.00 0.00 32 1016.9
20260504040008 16 260 0.0 4.8 0.00 0.00 0.00 32 1017.0
20260504035508 16 260 0.0 4.8 0.00 0.00 0.00 32 1017.1
20260504035010 16 260 0.0 4.8 0.00 0.00 0.00 32 1017.2
20260504034504 16 260 0.0 1.6 0.00 0.00 0.00 31 1017.0
20260504034222 16 260 0.0 0.0 0.00 0.00 0.00 31 1017.0
20260504034117 16 260 0.0 0.0 0.00 0.00 0.00 31 1017.1
20260504033729 16 260 0.0 0.0 0.00 0.00 0.00 31 1017.1
20260504033028 16 260 0.0 0.0 0.00 0.00 0.00 32 1017.0
20260504033004 16 260 0.0 0.0 0.00 0.00 0.00 32 1017.1
20260504032505 16 260 0.0 0.0 0.00 0.00 0.00 32 1017.0
20260504032004 16 260 0.0 1.6 0.00 0.00 0.00 31 1016.9
20260504031505 16 260 0.0 1.6 0.00 0.00 0.00 31 1016.9
20260504031006 17 260 0.0 1.6 0.00 0.00 0.00 30 1016.9
20260504030506 17 260 0.0 1.6 0.00 0.00 0.00 30 1016.9
20260504030030 17 260 0.0 0.0 0.00 0.00 0.00 30 1016.9
20260504030003 17 260 0.0 0.0 0.00 0.00 0.00 30 1016.8
20260504025500 17 260 0.0 0.0 0.00 0.00 0.00 29 1016.9
20260504025228 17 260 0.0 0.0 0.00 0.00 0.00 29 1016.9
20260504025113 17 260 0.0 0.0 0.00 0.00 0.00 29 1016.9
20260504024721 17 260 0.0 0.0 0.00 0.00 0.00 29 1016.8
20260504024620 17 260 0.0 0.0 0.00 0.00 0.00 28 1016.8
20260504024238 17 260 0.0 0.0 0.00 0.00 0.00 28 1016.8
20260504023500 17 260 0.0 0.0 0.00 0.00 0.00 28 1016.8
20260504023028 17 260 0.0 0.0 0.00 0.00 0.00 27 1016.8
20260504023001 17 260 0.0 0.0 0.00 0.00 0.00 27 1016.8
20260504022502 17 260 0.0 0.0 0.00 0.00 0.00 28 1016.7
20260504022458 17 260 0.0 0.0 0.00 0.00 0.00 27 1016.6
20260504022002 17 260 0.0 0.0 0.00 0.00 0.00 27 1016.5
20260504021457 17 260 0.0 0.0 0.00 0.00 0.00 27 1016.5
20260504021023 17 260 0.0 0.0 0.00 0.00 0.00 27 1016.5
20260504020957 17 260 0.0 0.0 0.00 0.00 0.00 27 1016.5
20260504020458 17 260 0.0 0.0 0.00 0.00 0.00 27 1016.4
20260504020024 17 260 0.0 0.0 0.00 0.00 0.00 27 1016.4
20260504015956 17 260 0.0 0.0 0.00 0.00 0.00 27 1016.4
20260504015614 17 260 0.0 0.0 0.00 0.00 0.00 26 1016.4
20260504014956 17 260 0.0 0.0 0.00 0.00 0.00 26 1016.3
20260504014456 17 260 0.0 0.0 0.00 0.00 0.00 25 1016.2
20260504014025 17 260 0.0 0.0 0.00 0.00 0.00 25 1016.2
20260504013957 18 260 0.0 0.0 0.00 0.00 0.00 25 1016.2
20260504013458 18 260 0.0 0.0 0.00 0.00 0.00 24 1016.2
20260504013025 18 260 0.0 0.0 0.00 0.00 0.00 24 1016.1
20260504012954 18 260 0.0 0.0 0.00 0.00 0.00 24 1016.1
20260504012451 18 260 0.0 0.0 0.00 0.00 0.00 23 1016.0
20260504012025 18 260 0.0 1.6 0.00 0.00 0.00 23 1016.0
20260504011952 18 260 0.0 1.6 0.00 0.00 0.00 23 1015.9
20260504011453 18 260 0.0 1.6 0.00 0.00 0.00 21 1015.9
20260504011025 18 260 0.0 1.6 0.00 0.00 0.00 21 1015.9
20260504010951 18 260 0.0 1.6 0.00 0.00 0.00 21 1015.9
20260504010451 18 260 0.0 1.6 0.00 0.00 0.00 20 1015.9
20260504010026 18 260 0.0 0.0 0.00 0.00 0.00 20 1015.8
20260504005953 18 260 0.0 0.0 0.00 0.00 0.00 20 1015.9
20260504005453 18 260 0.0 1.6 0.00 0.00 0.00 20 1015.8
20260504005024 18 260 0.0 3.2 0.00 0.00 0.00 19 1015.8
20260504004954 18 260 0.0 3.2 0.00 0.00 0.00 19 1015.8
20260504004504 18 260 0.0 4.8 0.00 0.00 0.00 18 1015.7
20260504004449 18 260 0.0 4.8 0.00 0.00 0.00 18 1015.7
20260504003947 18 260 0.0 4.8 0.00 0.00 0.00 18 1015.7
20260504003447 18 260 1.6 9.7 0.00 0.00 0.00 18 1015.7
20260504003025 19 260 1.6 9.7 0.00 0.00 0.00 18 1015.6
20260504002950 19 260 1.6 9.7 0.00 0.00 0.00 18 1015.6
20260504002448 19 260 0.0 6.4 0.00 0.00 0.00 18 1015.5
20260504002026 19 260 0.0 6.4 0.00 0.00 0.00 19 1015.6
20260504001948 19 260 0.0 6.4 0.00 0.00 0.00 19 1015.5
20260504001450 19 260 1.6 6.4 0.00 0.00 0.00 20 1015.6
20260504001211 20 260 1.6 6.4 0.00 0.00 0.00 19 1015.5
20260504001058 19 260 1.6 6.4 0.00 0.00 0.00 20 1015.5
20260504000443 20 260 1.6 6.4 0.00 0.00 0.00 20 1015.6
20260504000204 20 260 1.6 6.4 0.00 0.00 0.00 20 1015.5
20260504000055 20 260 1.6 6.4 0.00 0.00 0.00 20 1015.5
20260503235437 20 259 1.6 12.9 0.00 0.00 0.00 20 1015.5
20260503235013 20 259 3.2 12.9 0.00 0.00 0.00 20 1015.5
20260503234934 20 259 3.2 12.9 0.00 0.00 0.00 20 1015.5
20260503234433 20 258 3.2 9.7 0.00 0.00 0.00 20 1015.5
20260503234013 20 257 1.6 9.7 0.00 0.00 0.00 19 1015.4
20260503233933 20 258 1.6 9.7 0.00 0.00 0.00 19 1015.4
20260503233433 20 257 1.6 9.7 0.00 0.00 0.00 20 1015.4
20260503233010 20 257 1.6 12.9 0.00 0.00 0.00 19 1015.4
20260503232931 20 257 1.6 12.9 0.00 0.00 0.00 19 1015.4
20260503232448 20 256 1.6 9.7 0.00 0.00 0.00 18 1015.4
20260503232431 20 257 1.6 12.9 0.00 0.00 0.00 18 1015.5
20260503231929 20 256 1.6 14.5 0.00 0.00 0.00 18 1015.5
20260503231424 20 257 1.6 14.5 0.00 0.00 0.00 17 1015.4
20260503231009 21 256 1.6 14.5 0.00 0.00 0.00 17 1015.4
20260503230923 21 254 1.6 6.4 0.00 0.00 0.00 17 1015.4
20260503230422 21 254 0.0 6.4 0.00 0.00 0.00 16 1015.4
20260503230009 21 254 0.0 6.4 0.00 0.00 0.00 18 1015.5
20260503225921 21 254 0.0 6.4 0.00 0.00 0.00 18 1015.5
20260503225420 21 262 0.0 1.6 0.00 0.00 0.00 19 1015.5
20260503224919 21 262 0.0 3.2 0.00 0.00 0.00 19 1015.5
20260503224413 21 262 0.0 3.2 0.00 0.00 0.00 18 1015.6
20260503224007 21 262 0.0 1.6 0.00 0.00 0.00 18 1015.6
20260503223912 21 262 0.0 1.6 0.00 0.00 0.00 18 1015.6
20260503223410 22 262 0.0 1.6 0.00 0.00 0.00 17 1015.6
20260503223009 22 262 0.0 1.6 0.00 0.00 0.00 16 1015.6
20260503222908 23 262 0.0 1.6 0.00 0.00 0.00 16 1015.6
20260503222025 23 262 0.0 6.4 0.00 0.00 0.00 16 1015.6
20260503221408 23 262 1.6 9.7 0.00 0.00 0.00 16 1015.6
20260503221128 23 262 0.0 9.7 0.00 0.00 0.00 16 1015.6
20260503221022 23 262 0.0 9.7 0.00 0.00 0.00 16 1015.6
20260503220406 22 262 1.6 9.7 0.00 0.00 0.00 15 1015.6
20260503220003 23 262 1.6 9.7 0.00 0.00 0.00 14 1015.7
20260503215906 23 262 1.6 9.7 0.00 0.00 0.00 14 1015.7
20260503215404 23 259 1.6 4.8 0.00 0.00 0.00 14 1015.7
20260503215131 23 259 0.0 3.2 0.00 0.00 0.00 14 1015.7
20260503215020 23 259 0.0 3.2 0.00 0.00 0.00 14 1015.7
20260503214404 24 260 0.0 1.6 0.00 0.00 0.00 14 1015.6
20260503214002 24 260 1.6 6.4 0.00 0.00 0.00 15 1015.7
20260503213903 23 260 1.6 6.4 0.00 0.00 0.00 15 1015.6
20260503213403 23 260 1.6 6.4 0.00 0.00 0.00 16 1015.7
20260503213002 23 260 1.6 6.4 0.00 0.00 0.00 16 1015.8
20260503212903 23 260 1.6 6.4 0.00 0.00 0.00 16 1015.8
20260503212458 24 259 0.0 1.6 0.00 0.00 0.00 15 1015.9
20260503212403 23 260 0.0 6.4 0.00 0.00 0.00 16 1015.8
20260503212144 24 259 0.0 1.6 0.00 0.00 0.00 15 1015.8
20260503211401 23 259 0.0 4.8 0.00 0.00 0.00 16 1015.9
20260503210959 23 259 1.6 4.8 0.00 0.00 0.00 16 1015.9
20260503210900 23 259 1.6 4.8 0.00 0.00 0.00 16 1015.9
20260503210359 23 259 0.0 3.2 0.00 0.00 0.00 14 1015.9
20260503210000 25 259 0.0 3.2 0.00 0.00 0.00 14 1015.9
20260503205859 25 259 0.0 3.2 0.00 0.00 0.00 13 1015.9
20260503205400 25 259 0.0 3.2 0.00 0.00 0.00 14 1016.0
20260503205000 25 259 0.0 3.2 0.00 0.00 0.00 13 1016.1
20260503204902 25 259 0.0 3.2 0.00 0.00 0.00 13 1016.1
20260503204400 24 259 0.0 3.2 0.00 0.00 0.00 14 1016.2
20260503204001 23 259 0.0 3.2 0.00 0.00 0.00 14 1016.1
20260503203900 23 259 0.0 3.2 0.00 0.00 0.00 14 1016.1
20260503203401 24 259 0.0 1.6 0.00 0.00 0.00 13 1016.3
20260503203000 24 259 0.0 3.2 0.00 0.00 0.00 12 1016.3
20260503202857 24 259 0.0 3.2 0.00 0.00 0.00 12 1016.3
20260503202358 25 259 0.0 3.2 0.00 0.00 0.00 13 1016.3
20260503202000 24 259 0.0 3.2 0.00 0.00 0.00 14 1016.3
20260503201857 24 259 0.0 3.2 0.00 0.00 0.00 14 1016.4
20260503201355 25 259 0.0 4.8 0.00 0.00 0.00 13 1016.5
20260503201114 25 259 0.0 4.8 0.00 0.00 0.00 14 1016.6
20260503201013 25 259 0.0 4.8 0.00 0.00 0.00 14 1016.6
20260503200619 23 259 0.0 4.8 0.00 0.00 0.00 13 1016.7
20260503200114 23 259 0.0 4.8 0.00 0.00 0.00 13 1016.8
20260503200014 23 259 0.0 4.8 0.00 0.00 0.00 12 1016.8
20260503195356 23 259 0.0 9.7 0.00 0.00 0.00 14 1016.7
20260503194959 23 260 0.0 9.7 0.00 0.00 0.00 14 1016.8
20260503194856 23 260 0.0 9.7 0.00 0.00 0.00 14 1016.9
20260503194353 23 260 1.6 9.7 0.00 0.00 0.00 12 1017.0
20260503194000 23 260 1.6 9.7 0.00 0.00 0.00 12 1017.0
20260503193851 23 260 1.6 9.7 0.00 0.00 0.00 13 1017.0
20260503193616 23 259 1.6 4.8 0.00 0.00 0.00 13 1017.1
20260503193002 24 259 0.0 4.8 0.00 0.00 0.00 13 1017.2
20260503192852 24 260 0.0 4.8 0.00 0.00 0.00 13 1017.2